Total_Precipitation_Accumulation
0.00 0.00 0.00 0.00 0.00 0.00 0.00 0.00 0.11 0.03 0.01 0.04 0.02 0.01 0.03 0.00 0.00 0.01 0.03 0.00 0.05 0.01 0.01 0.00 0.01 0.01 0.04 0.52 0.34 0.28 0.22 0.50 0.51 0.56 1.73 0.82 0.58 1.50 1.44 2.50 1.57 1.28 1.22 1.09 1.34 1.20 2.02 1.47 0.68 0.34 0.09 0.07 0.05 0.05 0.04 0.02 0.01 0.00 0.01 0.01 0.03 0.01 0.02 0.02 0.05 0.06 0.07 0.06 0.05 0.06 0.04 0.05 0.04 0.06 0.11 0.08 0.08 0.06 0.06 0.13 0.15 0.17 0.18 0.21 0.14 0.17 0.10 0.14 0.21 0.12 0.19 0.15 0.15 0.18 0.14 0.15 0.13
0.00 0.00 0.00 0.00 0.00 0.00 0.02 0.00 0.02 0.01 0.01 0.03 0.04 0.01 0.02 0.00 0.00 0.01 0.03 0.03 0.00 0.04 0.01 0.02 0.01 0.00 0.02 0.02 0.07 0.01 0.13 0.19 0.17 0.31 0.56 0.57 0.97 0.87 1.95 2.60 1.97 1.10 1.09 1.33 1.40 1.41 1.30 0.91 0.56 0.22 0.08 0.06 0.04 0.04 0.03 0.02 0.02 0.01 0.02 0.05 0.03 0.02 0.01 0.02 0.07 0.09 0.04 0.04 0.04 0.07 0.05 0.06 0.08 0.09 0.13 0.10 0.05 0.05 0.08 0.17 0.23 0.30 0.19 0.14 0.20 0.15 0.09 0.12 0.18 0.15 0.15 0.15 0.15 0.12 0.10 0.12 0.13
0.00 0.00 0.00 0.00 0.00 0.00 0.00 0.00 0.03 0.02 0.04 0.03 0.03 0.01 0.00 0.02 0.00 0.00 0.01 0.01 0.00 0.00 0.00 0.01 0.01 0.02 0.00 0.03 0.14 0.23 1.25 0.17 0.09 0.18 0.53 0.37 0.55 1.19 1.62 2.79 1.86 1.40 0.92 1.02 1.36 0.75 0.52 0.53 0.51 0.25 0.09 0.05 0.03 0.05 0.05 0.03 0.01 0.02 0.02 0.04 0.02 0.02 0.02 0.05 0.04 0.08 0.10 0.05 0.08 0.07 0.08 0.10 0.13 0.16 0.13 0.26 0.06 0.05 0.06 0.12 0.32 0.25 0.19 0.18 0.20 0.19 0.18 0.18 0.17 0.16 0.20 0.15 0.10 0.13 0.09 0.10 0.06
0.00 0.00 0.00 0.00 0.01 0.00 0.00 0.00 0.00 0.01 0.01 0.05 0.03 0.00 0.00 0.00 0.00 0.00 0.00 0.00 0.00 0.00 0.00 0.01 0.02 0.01 0.04 0.20 0.16 0.03 0.16 0.50 0.18 0.17 0.60 0.60 0.67 1.01 1.81 2.38 2.71 1.59 0.81 1.11 0.61 0.47 0.36 0.37 0.33 0.25 0.08 0.04 0.04 0.04 0.03 0.03 0.02 0.02 0.03 0.02 0.02 0.02 0.04 0.05 0.09 0.09 0.12 0.14 0.06 0.08 0.12 0.16 0.21 0.27 0.34 0.16 0.06 0.06 0.11 0.16 0.18 0.20 0.18 0.19 0.26 0.16 0.12 0.16 0.10 0.19 0.16 0.08 0.07 0.07 0.06 0.05 0.05
0.00 0.00 0.00 0.00 0.01 0.00 0.00 0.00 0.00 0.01 0.01 0.02 0.06 0.01 0.00 0.00 0.00 0.00 0.00 0.00 0.00 0.00 0.00 0.02 0.00 0.03 0.01 0.13 0.06 0.20 0.49 0.33 0.24 0.20 0.42 0.41 0.61 1.13 1.64 2.38 2.51 1.80 1.12 0.83 0.50 0.39 0.60 0.55 0.32 0.34 0.08 0.07 0.04 0.04 0.05 0.03 0.04 0.02 0.03 0.02 0.03 0.02 0.03 0.06 0.06 0.11 0.08 0.10 0.11 0.12 0.12 0.18 0.17 0.52 0.20 0.09 0.07 0.06 0.07 0.06 0.08 0.12 0.09 0.08 0.09 0.04 0.05 0.05 0.05 0.07 0.04 0.03 0.04 0.04 0.04 0.02 0.03
0.00 0.00 0.00 0.00 0.02 0.00 0.00 0.01 0.00 0.00 0.01 0.00 0.01 0.02 0.00 0.00 0.00 0.00 0.00 0.00 0.00 0.02 0.01 0.04 0.04 0.13 0.11 0.19 0.25 0.21 0.17 0.54 0.38 0.26 0.35 0.82 0.96 1.40 1.57 1.98 2.19 1.73 1.52 1.61 1.03 0.79 0.87 0.27 0.39 0.31 0.29 0.25 0.12 0.14 0.04 0.06 0.09 0.05 0.07 0.09 0.05 0.03 0.03 0.03 0.07 0.07 0.09 0.12 0.11 0.13 0.11 0.17 0.24 0.26 0.31 0.19 0.12 0.10 0.09 0.10 0.08 0.06 0.09 0.09 0.08 0.04 0.05 0.04 0.02 0.02 0.02 0.03 0.05 0.04 0.01 0.01 0.01
0.00 0.00 0.00 0.00 0.00 0.00 0.00 0.00 0.00 0.00 0.00 0.00 0.00 0.00 0.00 0.00 0.00 0.00 0.00 0.00 0.00 0.00 0.00 0.02 0.01 0.03 0.16 0.07 0.09 0.21 0.20 0.14 0.42 0.45 0.24 0.43 0.49 1.00 1.34 1.80 1.90 1.70 1.79 2.39 1.85 1.02 0.88 0.50 0.24 0.43 0.37 0.26 0.21 0.20 0.15 0.09 0.16 0.22 0.20 0.16 0.13 0.07 0.06 0.05 0.06 0.11 0.11 0.14 0.13 0.13 0.14 0.13 0.19 0.19 0.22 0.24 0.12 0.11 0.14 0.05 0.08 0.08 0.09 0.07 0.07 0.07 0.05 0.06 0.03 0.03 0.02 0.03 0.02 0.00 0.01 0.02 0.03
0.00 0.00 0.00 0.00 0.00 0.00 0.00 0.00 0.00 0.00 0.00 0.00 0.00 0.00 0.00 0.00 0.00 0.00 0.00 0.00 0.00 0.00 0.01 0.00 0.01 0.07 1.16 0.04 0.54 0.19 0.17 0.19 0.24 0.13 0.16 0.38 0.77 1.32 1.62 1.63 1.82 2.89 1.87 2.26 1.71 1.19 1.52 0.48 0.23 0.15 0.19 0.42 0.36 0.39 0.29 0.15 0.23 0.35 0.23 0.22 0.14 0.14 0.07 0.08 0.05 0.10 0.12 0.17 0.17 0.10 0.14 0.23 0.13 0.29 0.19 0.13 0.18 0.08 0.10 0.06 0.04 0.13 0.07 0.04 0.04 0.05 0.06 0.05 0.05 0.03 0.02 0.02 0.01 0.00 0.02 0.03 0.01
0.00 0.00 0.00 0.00 0.00 0.00 0.00 0.00 0.00 0.00 0.00 0.00 0.00 0.00 0.00 0.00 0.00 0.00 0.00 0.00 0.00 0.00 0.01 0.01 0.03 0.16 0.73 0.22 0.45 0.37 0.29 0.39 0.24 0.16 0.65 0.77 1.21 1.45 2.17 1.81 2.08 1.82 2.35 2.25 1.46 1.57 0.74 0.38 0.18 0.17 0.23 0.16 0.29 0.34 0.31 0.27 0.20 0.25 0.48 0.28 0.13 0.17 0.10 0.07 0.09 0.10 0.12 0.13 0.15 0.25 0.18 0.18 0.15 0.13 0.16 0.12 0.19 0.12 0.10 0.10 0.09 0.12 0.04 0.05 0.05 0.07 0.04 0.04 0.03 0.04 0.02 0.02 0.01 0.01 0.00 0.00 0.00
0.00 0.00 0.00 0.00 0.00 0.00 0.00 0.00 0.00 0.00 0.00 0.00 0.00 0.00 0.00 0.00 0.00 0.00 0.00 0.00 0.00 0.00 0.01 0.00 0.00 0.03 0.15 0.83 0.36 0.51 0.56 0.41 0.51 0.34 0.50 0.88 1.73 2.25 1.76 2.32 2.59 2.67 3.25 2.89 1.50 1.00 0.70 0.92 0.13 0.13 0.11 0.17 0.23 0.31 0.30 0.28 0.23 0.18 0.34 0.37 0.20 0.17 0.14 0.13 0.09 0.07 0.09 0.10 0.15 0.18 0.18 0.15 0.19 0.11 0.13 0.11 0.13 0.21 0.08 0.08 0.06 0.09 0.08 0.05 0.04 0.04 0.02 0.02 0.02 0.03 0.02 0.01 0.01 0.01 0.00 0.00 0.00
0.00 0.00 0.00 0.00 0.00 0.00 0.00 0.00 0.00 0.00 0.00 0.00 0.00 0.00 0.00 0.00 0.00 0.00 0.00 0.00 0.00 0.00 0.00 0.01 0.01 0.04 0.05 0.55 0.76 0.74 0.76 0.46 0.39 0.77 1.25 1.07 2.31 2.37 3.87 2.64 2.89 2.99 3.11 3.25 2.08 0.99 0.79 0.84 0.75 0.18 0.29 0.27 0.29 0.18 0.31 0.31 0.31 0.19 0.20 0.30 0.12 0.13 0.11 0.07 0.10 0.15 0.12 0.12 0.17 0.18 0.25 0.13 0.15 0.14 0.18 0.16 0.18 0.10 0.05 0.06 0.06 0.11 0.07 0.04 0.03 0.01 0.01 0.01 0.01 0.01 0.01 0.01 0.01 0.01 0.00 0.00 0.00
0.00 0.00 0.00 0.00 0.00 0.00 0.00 0.00 0.00 0.00 0.00 0.00 0.00 0.01 0.00 0.00 0.00 0.00 0.00 0.00 0.00 0.01 0.01 0.00 0.06 0.01 0.22 0.37 0.63 1.50 0.97 0.74 1.54 0.86 1.34 1.74 1.72 1.80 2.79 1.91 2.23 3.54 2.91 3.48 2.19 1.08 1.03 0.93 0.98 1.09 0.55 0.63 0.40 0.22 0.40 0.32 0.31 0.21 0.07 0.09 0.06 0.08 0.07 0.06 0.09 0.20 0.12 0.20 0.11 0.15 0.21 0.28 0.27 0.19 0.14 0.11 0.13 0.11 0.09 0.06 0.12 0.12 0.06 0.04 0.05 0.02 0.02 0.02 0.02 0.01 0.00 0.00 0.00 0.01 0.01 0.01 0.01
0.00 0.00 0.00 0.00 0.00 0.00 0.00 0.00 0.00 0.00 0.00 0.01 0.00 0.00 0.00 0.00 0.01 0.00 0.00 0.01 0.00 0.00 0.00 0.00 0.00 0.01 0.73 0.49 0.99 1.13 1.05 1.19 1.23 1.13 1.16 1.50 2.03 2.33 2.13 3.04 4.60 3.52 3.95 2.96 1.53 1.10 0.84 0.85 0.80 0.77 0.90 0.57 0.53 0.48 0.40 0.35 0.20 0.23 0.26 0.13 0.18 0.14 0.11 0.12 0.15 0.15 0.21 0.21 0.12 0.20 0.17 0.31 0.27 0.27 0.13 0.21 0.09 0.16 0.09 0.11 0.07 0.07 0.04 0.02 0.02 0.03 0.01 0.00 0.00 0.00 0.00 0.00 0.00 0.00 0.00 0.00 0.01
0.00 0.00 0.00 0.00 0.00 0.00 0.00 0.01 0.00 0.00 0.00 0.01 0.00 0.00 0.00 0.01 0.01 0.01 0.01 0.01 0.02 0.02 0.01 0.00 0.01 0.04 0.49 0.35 1.24 1.28 1.35 1.35 1.22 1.64 1.21 1.66 1.65 2.36 3.24 2.49 4.22 3.14 3.40 2.63 2.25 1.33 1.02 0.78 0.81 0.59 0.90 0.82 1.04 0.77 0.35 0.32 0.37 0.24 0.29 0.44 0.25 0.17 0.16 0.19 0.21 0.16 0.13 0.14 0.17 0.20 0.20 0.20 0.27 0.21 0.26 0.22 0.17 0.32 0.11 0.07 0.07 0.05 0.04 0.02 0.01 0.02 0.04 0.03 0.03 0.04 0.07 0.01 0.00 0.00 0.00 0.00 0.00
0.00 0.00 0.00 0.00 0.00 0.00 0.00 0.00 0.01 0.00 0.02 0.00 0.00 0.00 0.00 0.00 0.00 0.02 0.01 0.01 0.03 0.02 0.00 0.00 0.00 0.12 1.54 0.27 0.97 0.76 0.82 1.30 2.04 1.91 2.17 1.88 1.54 3.42 4.48 4.38 5.06 3.94 2.79 2.65 2.18 2.07 1.38 1.18 0.70 0.73 0.75 0.69 0.96 1.27 1.58 1.55 0.78 1.06 0.73 0.34 0.42 0.46 0.29 0.70 0.59 0.33 0.15 0.16 0.12 0.17 0.23 0.32 0.28 0.28 0.24 0.25 0.19 0.35 0.29 0.09 0.11 0.05 0.04 0.03 0.02 0.01 0.05 0.05 0.08 0.02 0.00 0.01 0.00 0.00 0.00 0.00 0.00
0.00 0.00 0.00 0.00 0.00 0.00 0.01 0.00 0.00 0.00 0.06 0.00 0.00 0.00 0.00 0.00 0.00 0.01 0.01 0.00 0.05 0.01 0.01 0.08 0.00 0.12 0.18 0.21 0.50 0.48 0.99 1.57 2.30 2.14 2.27 2.03 2.91 3.64 3.21 3.01 3.03 2.79 2.54 2.52 2.71 2.41 1.29 1.34 1.05 1.01 0.92 1.16 1.40 1.60 1.35 1.01 1.65 2.00 1.27 0.68 0.71 0.78 1.00 0.84 0.39 0.37 0.26 0.21 0.25 0.20 0.21 0.39 0.37 0.64 0.38 0.49 0.24 0.22 0.24 0.34 0.11 0.05 0.04 0.02 0.03 0.02 0.02 0.05 0.00 0.02 0.01 0.00 0.00 0.00 0.00 0.00 0.00
0.00 0.00 0.01 0.00 0.00 0.00 0.00 0.00 0.00 0.03 0.05 0.00 0.00 0.00 0.01 0.00 0.00 0.00 0.00 0.00 0.01 0.01 0.02 0.09 0.10 0.02 0.51 0.50 0.49 0.64 1.85 2.13 1.58 1.95 1.98 1.56 2.79 3.02 2.45 2.32 2.53 3.00 2.64 3.03 2.80 2.25 2.10 1.55 1.86 1.90 1.33 1.60 1.98 1.69 1.55 1.14 0.95 1.38 1.13 1.54 0.90 0.80 0.40 0.36 0.25 0.23 0.25 0.24 0.26 0.20 0.24 0.48 0.82 0.76 0.71 0.72 0.16 0.46 0.16 0.13 0.14 0.11 0.05 0.01 0.02 0.02 0.00 0.02 0.06 0.03 0.02 0.00 0.00 0.00 0.00 0.00 0.01
0.00 0.00 0.00 0.00 0.00 0.00 0.00 0.00 0.00 0.01 0.01 0.01 0.00 0.00 0.01 0.00 0.00 0.00 0.00 0.02 0.01 0.02 0.01 0.10 0.06 0.33 0.57 0.82 0.69 1.01 1.13 1.44 1.45 1.01 1.34 1.47 1.38 2.13 2.42 2.83 2.92 2.70 2.63 2.57 2.48 2.60 2.09 2.66 2.16 2.28 2.35 2.35 1.56 1.97 2.04 1.21 1.69 1.65 1.93 1.03 1.50 1.00 0.61 0.26 0.51 0.46 0.97 0.57 0.24 0.45 0.83 0.86 1.04 1.13 1.05 1.03 0.71 0.33 0.34 0.10 0.11 0.08 0.07 0.02 0.01 0.01 0.01 0.01 0.05 0.05 0.05 0.01 0.00 0.00 0.00 0.04 0.04
0.00 0.00 0.00 0.00 0.00 0.00 0.00 0.00 0.00 0.00 0.00 0.00 0.00 0.00 0.01 0.01 0.00 0.00 0.04 0.03 0.06 0.12 0.12 0.39 0.32 0.52 0.71 0.78 1.11 0.58 0.89 1.27 1.10 1.21 0.99 0.97 1.24 0.97 2.01 2.16 2.18 2.08 2.19 2.09 2.25 2.53 2.97 2.47 1.99 2.25 2.19 2.40 2.59 2.34 2.12 1.78 1.53 1.29 1.47 1.11 1.11 0.97 1.09 0.45 0.51 0.78 0.79 0.82 0.58 0.59 0.99 1.04 0.91 1.31 1.46 0.96 0.80 0.31 0.45 0.08 0.09 0.07 0.05 0.03 0.02 0.02 0.04 0.01 0.01 0.06 0.05 0.03 0.00 0.00 0.09 0.16 0.11
0.00 0.00 0.00 0.00 0.00 0.00 0.00 0.00 0.00 0.00 0.00 0.02 0.00 0.00 0.01 0.00 0.00 0.00 0.01 0.05 0.05 0.08 0.20 0.43 0.46 0.67 0.84 0.90 0.75 0.60 0.69 0.86 1.25 1.32 1.93 1.81 1.37 1.68 1.87 2.10 2.21 2.04 1.75 1.80 1.89 2.08 2.80 2.83 2.79 3.53 2.08 1.80 1.68 1.73 2.63 1.90 1.60 1.36 1.53 1.03 0.80 0.99 1.12 0.89 0.88 0.57 1.02 1.41 1.44 1.22 1.45 1.40 1.36 1.37 0.76 0.89 0.57 0.51 0.33 0.15 0.11 0.06 0.03 0.01 0.02 0.04 0.03 0.02 0.03 0.03 0.13 0.05 0.01 0.08 0.25 0.23 0.18
0.00 0.00 0.00 0.00 0.00 0.00 0.00 0.00 0.00 0.00 0.00 0.00 0.00 0.00 0.00 0.00 0.00 0.01 0.03 0.08 0.11 0.17 0.15 0.38 0.43 0.60 0.66 0.51 0.82 1.30 1.66 1.77 2.26 4.10 2.86 1.76 2.56 3.04 2.62 2.16 2.99 2.99 3.16 2.86 2.12 2.49 2.19 2.18 2.06 2.92 3.00 3.36 2.57 2.47 2.71 2.16 1.70 2.48 2.35 1.56 1.78 1.29 1.17 1.05 1.09 1.50 1.92 2.03 1.79 1.53 1.11 1.64 1.89 1.68 0.95 0.71 0.65 0.57 0.61 0.34 0.30 0.27 0.15 0.19 0.03 0.12 0.11 0.19 0.12 0.30 0.14 0.04 0.22 0.14 0.13 0.27 0.18
0.00 0.00 0.00 0.00 0.00 0.00 0.00 0.00 0.00 0.00 0.00 0.00 0.00 0.00 0.00 0.00 0.00 0.00 0.01 0.10 0.32 0.18 0.24 0.25 0.45 0.52 0.79 0.77 1.38 0.85 1.24 1.97 3.50 4.89 3.32 3.89 5.27 3.42 2.64 2.74 2.95 2.79 2.41 1.97 1.74 2.26 2.05 1.94 2.31 2.42 2.25 2.13 1.62 2.15 2.30 1.87 1.50 2.57 2.24 2.48 2.07 2.19 1.68 1.98 1.94 1.85 1.94 1.69 1.32 1.21 1.35 1.45 1.53 1.11 1.61 1.14 0.96 0.59 0.49 0.24 0.35 0.34 0.20 0.28 0.08 0.18 0.25 0.21 0.16 0.18 0.07 0.20 0.13 0.13 0.09 0.06 0.05
0.00 0.00 0.00 0.00 0.00 0.00 0.00 0.00 0.00 0.00 0.00 0.00 0.00 0.01 0.00 0.00 0.00 0.01 0.01 0.02 0.13 0.17 0.24 0.28 0.36 0.60 0.74 0.99 1.22 1.17 1.73 2.86 4.53 3.43 2.61 4.23 3.53 2.60 1.96 2.62 2.91 3.13 3.33 3.44 2.95 2.17 2.20 2.32 2.92 3.39 2.40 1.87 1.87 1.88 2.04 1.58 1.64 2.68 2.19 2.01 1.97 2.19 2.12 2.27 2.64 1.99 2.13 2.25 1.91 1.89 1.87 1.80 1.47 1.08 0.99 0.91 0.83 1.11 1.28 1.02 0.61 0.76 0.44 0.37 0.13 0.29 0.35 0.22 0.42 0.53 0.56 0.12 0.07 0.09 0.05 0.06 0.04
0.00 0.00 0.00 0.00 0.00 0.00 0.00 0.00 0.00 0.00 0.00 0.01 0.00 0.00 0.00 0.00 0.01 0.02 0.02 0.05 0.06 0.23 0.39 0.36 0.72 1.04 0.95 1.33 1.01 1.13 1.32 3.35 3.99 4.17 4.59 3.25 2.90 2.47 2.20 3.04 2.80 2.77 3.16 2.57 2.50 3.00 2.43 2.31 2.04 2.65 2.32 2.18 1.90 2.18 2.25 2.29 2.05 1.81 1.67 2.10 2.43 1.70 1.62 1.97 2.43 2.28 2.61 2.07 1.30 1.73 1.58 1.83 1.51 1.49 1.32 1.28 0.95 1.27 1.55 1.00 0.95 0.94 1.02 0.71 0.36 0.21 0.40 0.60 0.39 0.31 0.39 0.40 0.18 0.10 0.24 0.06 0.08
0.00 0.00 0.00 0.00 0.00 0.00 0.00 0.00 0.00 0.00 0.00 0.00 0.00 0.00 0.00 0.00 0.00 0.00 0.03 0.07 0.08 0.23 0.25 0.68 0.67 1.54 1.42 0.97 1.34 2.11 2.61 3.31 2.10 2.38 2.95 4.00 3.43 2.34 2.75 3.57 2.61 2.24 2.22 2.28 3.33 3.48 2.10 2.26 2.41 2.43 2.55 3.05 2.78 2.39 2.54 2.19 1.91 2.02 1.64 1.79 2.40 2.18 1.91 1.65 2.50 2.65 1.82 1.66 1.50 1.17 1.52 1.75 1.88 1.21 1.45 1.53 1.79 1.24 1.04 0.84 0.66 0.73 0.84 0.84 0.50 0.31 0.46 0.51 0.51 0.80 0.69 0.36 0.15 0.32 0.25 0.28 0.47
0.00 0.00 0.00 0.00 0.00 0.00 0.00 0.00 0.00 0.00 0.00 0.00 0.00 0.00 0.00 0.00 0.00 0.02 0.10 0.14 0.09 0.18 0.34 0.22 0.75 1.24 1.16 0.87 1.17 1.73 1.65 1.15 1.32 1.36 1.72 2.41 2.68 2.58 2.68 2.47 2.25 2.03 2.10 2.45 2.85 3.65 3.21 3.02 2.64 2.66 2.71 2.76 2.90 2.86 2.73 1.48 1.91 1.91 1.43 1.29 2.22 1.67 1.79 1.71 1.71 2.07 1.81 1.44 1.34 1.27 1.58 2.08 1.70 1.70 1.74 1.83 1.44 1.79 0.90 1.02 0.90 0.84 0.50 0.55 0.32 0.41 0.57 0.71 0.98 0.50 0.67 0.33 0.51 0.77 0.37 0.13 0.06
0.00 0.00 0.00 0.00 0.00 0.00 0.00 0.01 0.00 0.00 0.00 0.00 0.00 0.00 0.01 0.00 0.00 0.24 0.29 0.10 0.10 0.21 0.36 0.62 0.77 1.22 1.22 0.91 1.15 2.17 1.20 1.16 1.30 1.78 1.45 1.79 2.10 2.39 2.27 2.81 1.89 1.64 1.96 2.73 2.19 2.33 2.64 2.83 4.02 3.56 2.52 3.04 3.21 2.62 2.17 1.90 1.97 1.92 1.67 1.55 1.26 1.23 1.11 1.23 1.25 1.19 1.44 1.68 1.10 1.14 1.23 1.70 2.11 2.18 1.81 1.96 1.49 1.77 1.52 1.44 1.32 2.04 1.48 0.89 0.56 0.42 0.53 0.79 0.84 0.82 0.81 0.55 0.55 0.74 0.47 0.31 0.19
0.00 0.00 0.00 0.00 0.00 0.00 0.00 0.01 0.01 0.00 0.00 0.00 0.00 0.00 0.00 0.00 0.00 0.06 0.13 0.37 0.20 0.21 0.66 0.84 0.95 1.06 1.51 0.80 1.39 1.50 1.73 1.85 2.22 1.86 1.37 1.60 1.71 1.74 1.67 2.21 1.85 1.49 1.51 1.88 2.38 2.52 2.48 2.52 2.17 2.13 2.45 2.90 2.40 3.07 2.64 2.19 1.56 1.52 1.74 1.41 1.24 1.11 0.93 0.71 0.81 0.74 1.07 1.53 1.53 1.48 1.56 1.35 1.43 2.04 2.31 1.91 2.01 1.72 1.86 1.59 2.03 1.92 1.46 1.15 0.85 1.25 0.73 0.82 0.80 0.53 0.82 0.67 1.02 0.91 0.71 0.33 0.13
0.00 0.00 0.00 0.02 0.00 0.00 0.01 0.03 0.01 0.00 0.00 0.00 0.00 0.00 0.00 0.00 0.02 0.12 0.26 0.33 0.57 0.60 0.66 0.93 1.13 1.63 1.25 1.57 1.83 1.95 2.49 1.76 1.89 2.40 2.16 2.86 2.52 2.67 2.48 2.04 1.99 1.98 1.87 1.75 2.39 2.71 2.58 2.05 2.11 2.11 2.15 2.85 2.31 2.18 1.92 2.17 1.87 1.46 1.33 1.43 1.51 0.86 0.86 0.68 1.22 1.05 1.00 1.69 1.56 1.69 1.67 1.16 1.37 1.85 2.42 1.61 1.56 1.45 1.81 1.94 1.56 1.51 2.02 1.64 0.98 0.91 0.80 0.74 0.89 0.44 0.50 0.34 0.31 0.25 0.34 0.28 0.21
0.00 0.00 0.01 0.00 0.02 0.07 0.00 0.00 0.00 0.00 0.00 0.00 0.00 0.01 0.12 0.02 0.04 0.08 0.07 0.32 0.30 0.65 1.09 1.43 1.91 1.73 2.70 2.40 1.42 1.57 1.75 3.24 3.74 2.58 2.52 2.58 2.36 2.34 1.80 1.76 2.20 1.99 1.80 1.72 2.08 1.98 1.59 2.46 2.47 2.27 2.52 3.15 2.34 2.58 2.25 1.99 2.28 2.63 2.10 1.72 1.19 0.84 0.84 0.91 1.07 1.51 1.55 1.61 1.61 1.47 1.72 1.21 1.32 1.67 1.71 1.60 1.69 1.48 1.63 1.68 1.94 1.44 2.10 1.48 1.19 1.13 0.65 0.71 0.57 0.64 0.80 0.49 0.35 0.65 0.75 0.50 0.42
0.00 0.00 0.00 0.00 0.00 0.01 0.00 0.00 0.00 0.00 0.00 0.00 0.00 0.01 0.09 0.15 0.27 0.11 0.17 0.28 0.82 1.42 1.59 2.02 2.42 1.42 1.60 1.80 1.58 1.45 2.11 2.10 2.23 2.14 1.96 1.89 2.34 1.68 1.91 1.92 2.32 1.66 1.94 1.94 2.67 2.21 1.72 2.79 3.48 3.92 3.15 3.34 2.31 2.54 1.51 1.84 2.90 2.43 2.49 2.05 1.57 1.03 1.22 1.22 1.76 1.92 1.08 1.11 1.33 1.85 2.03 1.77 2.15 1.84 2.15 2.28 2.16 1.96 1.70 1.68 1.59 1.64 1.63 1.95 1.33 0.98 1.23 1.21 1.04 1.17 1.03 0.64 0.25 0.65 0.64 0.50 0.51
0.00 0.06 0.05 0.02 0.01 0.02 0.01 0.00 0.00 0.00 0.00 0.00 0.00 0.02 0.10 0.07 0.13 0.16 0.37 0.84 1.32 0.91 1.08 1.42 1.64 1.35 1.20 1.50 1.26 1.25 0.99 1.21 1.38 1.41 1.98 2.69 1.60 1.39 1.43 1.81 1.81 1.70 2.52 2.75 2.84 3.47 3.28 3.80 3.48 2.56 2.64 2.73 2.14 1.45 2.09 2.75 2.55 2.12 2.06 2.27 1.69 1.56 1.35 1.57 1.49 1.53 1.40 1.09 1.07 1.32 1.71 2.20 2.11 1.79 2.11 2.14 2.04 1.58 1.93 1.81 1.42 1.78 1.54 2.16 1.79 1.78 1.83 1.28 1.05 1.31 1.36 0.85 0.47 0.42 0.53 0.56 1.01
0.00 0.01 0.01 0.03 0.01 0.02 0.01 0.01 0.00 0.00 0.00 0.00 0.00 0.04 0.06 0.08 0.30 0.28 0.91 1.44 0.87 0.56 1.33 0.94 1.61 1.50 1.66 1.28 2.34 1.26 1.31 0.73 0.40 0.60 0.64 1.33 1.91 1.76 2.34 2.97 1.94 1.89 1.93 2.18 1.80 2.11 2.35 4.06 4.56 3.42 3.21 3.01 1.98 2.04 2.85 2.85 2.27 1.91 2.13 2.11 2.28 1.53 1.24 1.23 1.26 1.66 1.59 1.53 1.78 1.56 2.77 2.38 1.81 1.86 1.77 1.99 2.10 1.83 1.57 1.53 1.95 1.65 2.25 1.92 2.06 1.84 1.53 2.03 1.44 1.11 0.80 0.85 0.98 0.93 0.68 0.87 1.30
0.00 0.00 0.01 0.03 0.03 0.01 0.02 0.03 0.00 0.00 0.00 0.00 0.00 0.00 0.08 0.04 0.01 0.31 1.47 1.12 0.93 0.55 0.66 1.32 0.81 0.46 0.32 0.73 0.53 0.74 0.51 0.41 0.43 0.59 0.83 1.16 1.13 1.84 3.16 2.06 2.82 2.03 1.72 2.48 2.96 3.40 3.29 3.79 2.67 3.21 3.91 3.76 3.24 2.89 3.26 2.71 2.59 1.97 2.08 1.99 2.01 1.81 1.39 1.36 1.68 1.79 1.98 2.17 3.11 2.39 1.80 1.73 1.43 2.07 1.61 1.76 1.95 1.65 1.71 1.81 1.88 2.09 2.16 2.22 2.58 1.69 2.53 2.29 1.70 1.02 1.02 0.79 1.15 1.09 0.98 1.36 1.09
0.05 0.01 0.01 0.01 0.02 0.03 0.03 0.00 0.02 0.00 0.00 0.00 0.00 0.00 0.01 0.09 0.01 0.03 0.04 0.65 0.64 0.89 0.94 1.61 1.40 0.49 0.44 0.56 0.50 0.40 0.55 0.72 0.40 0.75 1.41 1.57 1.45 1.49 1.59 1.50 2.17 2.00 1.90 2.33 5.02 5.86 3.11 3.80 4.70 4.23 4.05 3.73 3.68 3.97 3.53 3.00 2.67 1.96 1.91 2.33 2.01 2.23 2.03 1.24 1.75 2.08 2.18 3.22 2.74 3.01 3.31 2.46 1.69 1.39 1.39 2.26 2.12 1.90 1.75 1.75 2.04 2.37 2.28 1.99 1.48 1.83 2.05 1.40 1.31 1.50 0.99 0.78 0.84 0.82 1.21 1.11 1.07
0.00 0.00 0.00 0.00 0.02 0.05 0.02 0.01 0.00 0.00 0.00 0.00 0.00 0.01 0.02 0.01 0.02 0.05 0.38 0.48 0.51 1.21 1.41 1.33 1.23 1.69 1.16 0.89 0.56 0.57 0.53 0.77 0.88 0.96 1.38 1.26 1.26 1.09 1.04 1.27 1.55 1.92 2.41 3.54 4.82 3.55 3.11 3.17 3.11 3.94 3.67 4.62 4.06 2.61 1.94 1.94 1.99 1.89 2.13 2.04 1.65 1.89 1.59 1.11 1.74 2.91 2.23 2.39 2.16 2.38 2.75 2.58 1.83 1.43 1.58 2.16 2.61 2.23 2.39 2.08 2.36 2.47 2.15 1.80 1.73 1.31 1.20 1.11 1.49 1.76 1.64 0.98 0.82 0.70 0.71 1.18 1.20
0.00 0.00 0.00 0.01 0.00 0.01 0.00 0.00 0.04 0.00 0.00 0.00 0.00 0.01 0.01 0.01 0.02 0.01 0.07 0.11 1.05 1.40 2.10 2.46 2.50 1.31 0.57 0.99 0.42 0.75 0.72 0.73 0.75 0.90 1.04 1.48 1.74 1.96 1.15 0.68 0.74 1.01 1.74 3.09 4.03 4.03 3.31 3.81 3.60 2.63 2.92 3.19 2.47 2.51 1.97 2.05 1.62 1.88 1.75 1.56 1.48 1.89 1.72 1.91 1.58 2.88 1.78 1.75 2.21 1.98 1.63 1.84 2.82 1.96 2.00 1.93 1.57 1.56 2.07 1.79 2.08 2.22 1.50 1.99 1.34 1.24 1.09 0.98 1.40 1.80 1.85 2.00 1.70 1.19 1.66 1.15 2.75
0.00 0.00 0.00 0.00 0.00 0.02 0.01 0.02 0.00 0.00 0.00 0.00 0.00 0.02 0.01 0.03 0.03 0.04 0.06 0.08 0.39 0.40 0.54 0.32 0.81 1.02 0.96 0.83 0.67 0.38 0.99 1.28 0.92 0.53 0.67 0.70 0.88 0.98 1.31 1.30 1.13 1.34 2.16 3.60 3.30 3.66 3.39 3.65 4.74 3.63 3.33 3.37 2.56 2.29 1.77 2.22 1.60 1.75 1.83 2.15 1.87 1.43 1.87 2.11 2.03 1.34 1.89 1.98 2.16 1.52 1.90 1.70 2.03 1.88 1.44 1.91 1.28 1.17 1.55 1.16 1.42 1.93 1.39 1.05 1.00 1.01 1.44 1.38 1.23 1.84 1.67 1.58 1.42 1.45 2.49 1.40 2.17
0.00 0.01 0.00 0.00 0.04 0.02 0.00 0.00 0.00 0.00 0.00 0.00 0.01 0.01 0.04 0.06 0.04 0.06 0.04 0.04 0.09 0.07 0.06 0.11 0.22 0.40 0.50 0.43 0.49 1.09 1.22 0.76 0.62 0.37 0.42 0.82 0.69 0.75 1.12 1.25 1.38 1.91 2.87 2.36 2.77 3.58 3.81 3.13 3.88 3.95 4.83 3.86 2.24 1.68 1.55 1.32 1.33 2.51 2.89 2.17 1.35 2.06 2.32 1.95 1.89 2.29 2.46 2.46 3.08 2.50 2.20 1.52 1.80 2.03 1.54 1.31 1.43 1.24 1.45 1.41 1.42 1.74 1.44 1.27 1.26 1.11 1.23 1.65 1.22 1.49 2.09 1.40 2.21 2.24 2.57 2.05 1.79
0.00 0.01 0.01 0.06 0.07 0.02 0.12 0.09 0.00 0.03 0.00 0.00 0.00 0.05 0.03 0.06 0.05 0.06 0.14 0.10 0.11 0.11 0.13 0.24 0.39 0.57 0.29 0.52 0.52 0.68 0.65 0.38 1.19 0.85 0.56 0.65 0.99 1.49 0.96 1.51 1.45 2.36 3.36 3.08 2.41 2.68 2.92 3.20 3.49 2.50 3.55 2.46 2.35 2.05 1.86 2.09 1.06 2.34 1.68 1.80 3.16 2.12 2.11 2.50 3.29 3.04 2.39 2.03 2.26 2.12 2.17 1.22 1.03 1.13 1.22 1.00 1.13 1.48 1.12 1.17 1.21 1.35 1.25 1.07 1.16 1.27 0.95 1.46 1.47 1.43 1.50 1.44 1.35 1.95 1.18 1.65 1.37
0.02 0.01 0.01 0.02 0.03 0.09 0.00 0.09 0.02 0.00 0.01 0.00 0.01 0.04 0.12 0.08 0.15 0.16 0.17 0.40 0.77 1.06 0.90 0.47 0.37 0.41 1.06 1.27 1.22 0.65 0.72 0.50 0.86 1.00 1.12 1.30 1.74 2.08 2.04 2.09 2.97 3.42 2.80 2.66 2.67 2.73 3.02 3.62 3.30 2.17 2.73 2.54 1.77 1.97 2.02 1.95 1.90 1.85 1.75 3.09 2.73 2.77 2.88 2.84 3.04 2.61 1.97 2.19 1.90 1.89 1.74 1.01 1.15 1.32 1.12 1.12 0.85 1.03 0.74 0.89 1.19 1.11 1.28 1.01 0.84 1.16 1.04 1.03 1.48 2.11 1.67 1.61 1.22 1.18 1.92 1.01 1.19
0.06 0.10 0.03 0.00 0.01 0.00 0.01 0.00 0.01 0.03 0.14 0.03 0.01 0.14 0.29 0.33 0.15 0.14 0.17 0.30 1.06 1.77 1.27 0.36 0.74 0.92 1.20 1.52 1.08 1.78 1.72 0.73 0.81 0.77 0.57 0.46 0.76 0.99 2.30 3.84 2.82 2.31 2.04 3.43 2.96 3.78 3.71 3.36 2.26 2.13 3.09 2.86 1.96 1.63 1.56 2.14 1.81 2.49 2.75 2.24 2.92 2.06 2.13 2.25 2.36 1.82 1.69 1.54 1.49 1.23 1.34 1.26 1.55 1.25 1.22 1.01 1.15 1.06 0.96 1.01 1.24 1.07 1.31 0.88 1.09 1.22 0.98 1.88 1.50 1.71 1.58 1.16 1.66 1.47 1.61 1.15 1.52
0.02 0.15 0.00 0.01 0.01 0.00 0.01 0.00 0.01 0.04 0.25 0.34 0.01 0.13 0.54 0.28 0.44 0.43 0.38 0.29 0.33 0.44 0.70 0.31 0.23 0.77 0.99 0.97 0.83 1.10 1.10 0.69 0.62 0.84 0.84 0.66 1.16 1.52 2.98 2.91 2.13 1.92 2.21 1.51 2.79 4.02 4.14 3.82 2.10 1.70 2.08 2.71 2.44 2.46 3.08 2.91 2.17 2.25 2.20 2.57 2.55 2.20 2.30 2.04 1.61 1.36 1.43 1.46 1.18 1.30 1.71 1.68 1.56 1.21 0.96 0.62 0.73 0.77 0.84 0.71 0.81 0.92 0.73 1.18 1.12 1.39 1.31 1.49 1.24 1.38 1.29 1.90 1.32 1.15 1.49 1.74 1.15
0.23 0.02 0.01 0.00 0.00 0.01 0.03 0.01 0.02 0.09 0.01 0.04 0.00 0.05 0.29 0.37 0.50 0.42 0.38 0.23 0.47 0.44 0.29 0.65 1.01 0.73 1.37 1.24 0.91 0.87 0.56 0.61 0.60 0.88 1.10 1.08 1.21 1.68 2.03 2.04 1.95 2.43 2.65 2.07 4.13 4.45 2.17 1.93 1.70 1.48 2.15 2.98 2.78 2.36 3.52 2.40 2.32 3.25 3.04 3.00 2.26 1.80 1.42 1.69 1.32 1.03 1.31 2.04 1.66 1.31 1.55 1.25 0.96 0.87 0.68 0.77 0.57 0.57 0.83 1.06 0.87 1.09 0.67 0.66 1.30 1.88 1.71 1.37 1.28 1.24 1.74 1.73 0.90 1.24 1.40 1.48 0.72
0.09 0.00 0.00 0.00 0.00 0.02 0.01 0.03 0.06 0.06 0.05 0.49 0.09 0.15 0.11 0.25 0.35 0.77 0.79 0.52 0.92 0.70 0.45 0.67 0.49 0.51 1.19 0.83 0.66 0.74 0.59 0.43 0.88 1.08 1.14 1.22 1.91 1.72 1.30 1.33 1.31 1.75 2.25 2.95 2.62 3.34 2.95 2.66 1.74 1.66 2.98 2.91 2.35 1.51 1.46 1.97 2.21 2.90 2.51 2.57 2.62 1.93 1.70 1.74 1.49 1.75 1.41 1.82 0.98 1.07 0.97 0.94 0.92 0.83 1.11 0.84 1.13 1.10 0.95 0.85 0.94 0.74 1.03 0.93 1.14 1.54 1.27 1.44 1.41 1.74 1.40 1.11 1.07 1.55 1.25 1.73 1.66
0.03 0.00 0.00 0.01 0.00 0.00 0.02 0.05 0.09 0.19 0.06 0.19 0.16 0.16 0.10 0.31 0.40 0.59 1.29 0.66 0.72 0.94 0.90 0.29 0.26 0.26 0.42 0.49 0.58 0.50 0.69 0.64 0.37 1.02 0.44 1.16 1.65 2.56 2.08 2.03 1.69 2.26 2.02 2.31 2.92 5.07 2.85 2.51 3.57 2.89 3.27 2.71 2.12 1.44 1.86 2.53 2.43 2.32 2.53 1.73 1.75 1.64 1.43 1.54 1.28 1.04 0.90 0.94 1.10 1.18 1.17 1.30 1.09 0.96 0.85 0.90 1.07 1.07 0.77 0.54 0.59 0.60 0.95 1.07 1.75 1.00 1.15 1.12 1.04 1.21 1.26 1.14 1.13 1.60 1.83 1.64 1.39
0.00 0.00 0.01 0.01 0.02 0.03 0.04 0.03 0.15 0.18 0.07 0.28 0.13 0.09 0.08 0.48 0.32 0.29 0.66 0.37 0.19 0.23 0.40 0.34 0.36 1.07 0.81 0.77 0.66 0.44 0.51 0.60 0.57 1.04 1.16 0.84 1.18 1.34 1.52 1.50 1.93 2.24 2.64 2.45 3.25 3.89 1.99 2.19 2.69 3.18 3.54 2.92 2.45 3.11 2.75 2.95 2.65 3.69 1.47 1.39 1.43 0.99 0.88 0.91 1.62 0.92 0.75 1.62 1.30 1.20 1.90 1.88 1.78 1.26 1.09 0.97 0.60 0.69 0.69 0.58 0.48 0.73 0.99 1.06 1.26 1.17 1.10 0.91 1.00 1.37 1.85 1.87 2.61 1.58 1.23 1.28 1.56
0.01 0.03 0.04 0.02 0.07 0.06 0.03 0.13 0.08 0.28 0.28 0.21 0.09 0.10 0.06 0.20 0.35 0.22 0.15 0.15 0.13 0.11 0.23 0.24 0.33 0.30 0.50 0.78 0.34 0.36 0.54 0.66 0.79 0.77 0.92 1.17 2.35 2.28 2.43 2.92 3.06 3.48 2.54 2.03 1.68 1.69 1.57 1.33 2.37 2.45 3.57 2.85 3.18 4.06 3.59 3.89 3.25 1.85 1.89 2.12 1.38 0.91 0.78 0.67 0.94 0.70 0.63 0.77 0.49 0.86 1.25 2.53 2.02 1.87 1.06 0.91 0.53 0.33 0.55 0.77 0.70 0.92 0.96 0.95 0.94 0.71 1.33 1.56 1.69 1.60 1.78 1.72 1.85 1.26 1.88 1.61 1.50
0.04 0.04 0.04 0.32 0.60 0.24 0.44 0.25 0.34 0.16 0.18 0.23 0.09 0.08 0.14 0.07 0.32 0.24 0.24 0.24 0.16 0.08 0.12 0.23 0.29 0.41 0.46 0.65 0.40 0.54 0.54 0.95 0.93 1.50 3.28 2.44 1.95 1.90 1.93 1.75 1.76 1.68 2.31 1.81 1.56 1.21 0.86 1.86 2.09 2.91 4.15 3.28 3.21 3.10 3.14 2.94 1.90 1.69 1.24 0.87 0.77 0.59 0.80 0.96 1.27 0.68 0.84 0.98 0.90 1.10 1.06 1.38 1.25 1.03 1.15 0.81 0.65 0.64 0.76 0.86 0.84 0.76 0.87 0.66 1.29 1.28 1.97 1.68 2.06 1.93 1.68 1.60 1.71 0.95 1.09 1.54 1.62
0.05 0.04 0.17 0.17 0.50 0.29 0.10 0.31 0.15 0.25 0.13 0.06 0.09 0.07 0.17 0.30 0.47 0.12 0.30 0.22 0.14 0.18 0.15 0.51 0.84 0.67 0.32 0.56 0.56 0.84 1.51 1.80 1.97 4.36 3.07 2.86 2.12 0.95 1.66 1.88 2.64 2.59 2.13 1.56 1.37 0.93 1.33 2.34 3.21 3.01 3.60 2.28 2.25 2.64 2.32 1.54 1.23 1.18 1.21 0.82 0.71 0.86 1.21 1.36 1.28 1.04 1.42 1.52 1.33 1.47 1.21 0.92 1.10 0.86 0.92 0.95 0.87 1.10 1.16 1.06 1.34 1.06 1.29 1.27 1.29 0.84 1.05 1.78 2.47 1.92 1.87 1.49 1.06 0.93 1.88 1.77 1.69
0.02 0.01 0.04 0.54 0.36 0.38 0.26 0.19 0.26 0.19 0.42 0.23 0.14 0.07 0.12 0.19 1.99 0.33 0.23 0.12 0.08 0.10 0.18 0.23 0.27 0.54 0.88 0.65 0.70 1.16 2.95 3.20 3.70 2.13 1.10 0.78 0.77 0.95 0.95 1.61 1.71 1.55 1.67 1.19 0.80 0.69 0.94 2.69 2.90 3.62 5.20 2.64 3.01 1.71 1.78 1.38 1.36 1.14 1.22 1.28 1.76 0.99 1.21 1.02 0.60 0.76 1.02 1.26 1.61 1.40 1.62 1.46 1.04 1.04 1.05 1.04 0.92 0.90 0.70 1.38 1.20 1.87 1.02 0.89 0.89 1.18 1.07 1.87 2.03 1.73 1.42 1.43 1.68 1.41 1.59 1.75 1.66
0.02 0.04 0.05 0.12 0.26 0.12 0.45 0.58 0.22 0.41 0.38 0.14 0.13 0.16 0.57 1.02 1.28 0.50 0.18 0.10 0.09 0.12 0.27 0.31 0.44 0.44 0.54 1.41 2.02 2.31 2.07 2.04 1.43 0.98 0.52 0.70 0.76 0.55 0.35 0.62 0.77 1.31 1.41 2.47 1.62 1.92 2.15 3.28 2.54 3.28 3.96 2.37 2.14 1.88 2.11 1.98 1.32 1.14 1.14 0.66 1.16 1.28 0.50 1.21 0.67 0.99 0.87 1.05 1.16 0.98 0.76 0.87 1.30 2.12 2.00 1.19 1.33 0.88 1.09 1.37 2.23 1.91 1.77 1.95 1.71 1.85 2.13 2.27 1.77 1.97 1.70 1.75 1.04 1.05 1.71 2.09 1.33
0.20 0.03 0.12 0.09 0.06 0.09 0.14 0.12 0.11 0.10 0.15 0.16 0.03 0.20 0.43 0.45 1.07 0.56 0.41 0.28 0.23 0.11 0.24 0.14 0.46 0.79 0.93 1.70 1.69 1.47 1.36 1.41 1.15 1.63 1.75 1.28 0.76 0.63 0.47 0.85 0.92 0.59 1.58 1.92 2.29 3.19 2.98 2.36 1.97 2.19 4.05 3.59 3.44 2.78 2.73 2.22 1.34 0.95 0.79 0.83 0.91 0.72 0.42 0.73 1.24 0.65 0.45 0.45 0.74 0.94 0.79 0.62 1.19 1.64 0.79 0.83 1.33 2.40 2.06 2.31 2.12 2.49 2.45 2.14 1.84 1.84 2.17 1.98 2.61 2.50 1.84 1.50 1.24 1.75 1.78 1.43 1.33
0.11 0.17 0.11 0.12 0.14 0.22 0.24 0.58 0.37 0.16 0.36 0.15 0.06 0.17 0.50 0.17 0.98 0.84 0.57 0.66 0.36 0.33 0.32 0.25 0.36 0.69 0.98 1.36 0.90 0.69 1.38 1.32 1.15 1.57 1.81 1.90 1.27 1.46 1.59 1.21 0.80 0.84 1.58 1.48 1.58 2.58 2.67 3.36 2.85 3.53 5.00 2.39 3.73 3.28 2.30 1.82 1.67 1.19 1.32 1.65 1.33 1.14 0.76 0.79 0.69 0.37 0.23 0.41 0.53 0.93 1.09 0.83 0.85 1.09 1.44 1.24 1.76 2.35 3.20 3.22 2.90 2.61 2.44 2.51 2.57 2.20 2.38 3.30 3.27 2.57 1.92 1.74 1.60 1.99 1.65 1.15 1.24
0.12 0.18 0.10 0.17 0.48 0.42 0.19 0.23 0.45 0.37 0.32 0.34 0.20 0.17 0.16 0.25 0.95 0.56 0.63 0.38 0.49 0.46 0.27 0.23 0.36 0.72 1.07 1.25 1.15 0.90 1.14 0.98 0.94 0.90 1.20 1.34 0.80 0.56 0.57 0.72 0.93 0.99 0.83 0.55 0.68 0.62 0.94 1.81 3.43 4.54 4.96 4.43 3.15 1.86 1.65 1.41 1.19 1.64 1.07 1.27 1.32 0.86 0.60 0.64 0.45 0.38 0.44 0.38 0.32 0.50 0.68 1.15 0.87 1.15 1.18 1.16 2.26 3.20 2.58 1.80 2.24 2.42 2.67 2.04 2.93 2.37 1.79 2.75 2.66 2.20 1.78 1.52 2.09 1.96 1.74 1.46 1.31
0.04 0.01 0.08 0.17 0.17 0.37 0.55 0.45 0.68 0.62 0.61 0.34 0.43 0.25 0.48 0.33 0.59 0.26 0.39 0.29 0.41 0.42 0.45 0.39 0.52 0.46 0.51 0.46 0.48 0.54 0.64 0.88 1.02 0.97 0.99 1.44 1.53 1.79 1.59 0.96 0.94 0.78 0.71 0.62 0.49 0.41 0.49 1.12 2.01 2.40 2.23 3.11 2.74 2.31 1.33 0.68 1.16 0.76 0.92 1.16 0.64 0.68 0.79 0.78 0.84 0.81 0.81 0.74 0.55 0.51 0.75 1.03 1.75 1.64 1.58 1.95 1.56 1.33 1.25 1.20 1.25 1.40 1.21 1.79 2.22 2.05 1.10 1.23 1.11 1.26 1.27 0.91 1.30 1.56 1.73 1.06 1.19
0.17 0.11 0.10 0.26 0.24 0.32 0.20 0.63 0.32 0.50 0.53 0.51 0.43 0.45 0.70 0.71 0.28 0.33 0.30 0.58 0.48 0.35 0.33 0.44 0.56 0.98 0.75 1.19 1.15 0.89 0.47 0.46 0.78 0.92 0.92 0.77 0.68 0.92 0.62 0.78 0.72 1.08 0.71 0.51 0.61 0.76 0.70 0.82 0.86 0.88 0.93 0.79 0.96 2.56 2.23 1.64 0.94 1.45 0.90 0.89 1.22 1.47 1.25 0.96 0.93 0.99 1.08 0.68 0.79 0.66 0.66 1.55 1.26 0.80 0.84 1.20 1.18 0.87 0.97 1.25 1.14 1.43 1.41 1.18 1.16 1.13 1.30 1.11 1.43 1.01 1.00 1.19 1.17 1.30 1.20 1.01 1.04
0.39 0.26 0.36 0.40 0.58 0.77 0.80 0.68 0.17 0.26 0.41 0.46 0.37 0.46 0.66 0.67 0.21 0.63 0.66 0.40 0.86 0.66 0.70 0.72 0.82 0.68 0.91 1.01 0.74 0.72 1.05 0.84 0.61 0.78 0.65 0.85 1.38 0.90 0.67 0.59 0.57 0.53 0.75 0.79 0.52 0.69 0.67 0.51 0.62 0.71 1.34 0.79 0.72 1.42 2.12 2.39 2.59 1.97 2.16 2.17 1.81 1.78 1.67 1.30 0.95 0.72 0.84 1.05 1.41 1.57 1.08 1.06 1.32 1.69 1.63 1.69 1.40 1.63 1.57 0.77 0.77 1.00 1.17 1.20 1.09 1.06 1.50 1.21 0.93 1.52 1.66 1.61 2.14 1.75 1.12 1.47 1.80